Norfolk, NE

12:12 PM CDT on July 25, 2016 (GMT -0500)
Stefan Memorial

Weather History for KOFK - July, 2013

Change the Weather History Date:

Saturday, July 6, 2013

  Actual Average Record
Temperature  
Mean Temperature 82 °F 75 °F  
Max Temperature 91 °F 86 °F 106 °F (1937)
Min Temperature 73 °F 63 °F 51 °F (2006)
Degree Days  
Heating Degree Days 0 0  
Month to date heating degree days 0 0  
Since 1 June heating degree days 42 30  
Since 1 July heating degree days 0 0  
Cooling Degree Days 17 10  
Month to date cooling degree days 48 58  
Year to date cooling degree days 295 305  
Since 1 June cooling degree days 231 244  
Growing Degree Days 32 (Base 50)    
Moisture  
Dew Point 62 °F    
Average Humidity 57    
Maximum Humidity 69    
Minimum Humidity 44    
Precipitation  
Precipitation 0.00 in 0.11 in 2.17 in (1952)
Month to date precipitation T 0.70  
Year to date precipitation 13.60 14.66  
Snow  
Snow 0.00 in 0.00 in - ()
Month to date snowfall 0.0 0.0  
Since 1 July snowfall 0.0 0.0  
Snow Depth 0.00 in    
Sea Level Pressure  
Sea Level Pressure 29.76 in    
Wind  
Wind Speed 14 mph (SSE)    
Max Wind Speed 21 mph    
Max Gust Speed 28 mph    
Visibility 10 miles    
Events      
T = Trace of Precipitation, MM = Missing Value Source: NWS Daily Summary

Daily Weather History Graph

Daily Weather History Graph

Search for Another Location

Airport or City:

Trip Planner

Search our weather history database for the weather conditions in past years. The results will help you decide how hot, cold, wet, or windy it might be!

Date:

Astronomy

Jul. 06, 2013 Rise Set
Actual Time 6:01 AM CDT 9:07 PM CDT
Civil Twilight 5:27 AM CDT 9:41 PM CDT
Nautical Twilight 4:43 AM CDT 10:25 PM CDT
Astronomical Twilight 3:51 AM CDT 11:16 PM CDT
Moon 4:48 AM CDT (7/6) 7:49 PM CDT (7/6)
Length of Visible Light 16h 14m
Length of Day
15h 06m
Waning Crescent, 2% of the Moon is Illuminated
Jul 6
Waning Crescent
Jul 8
New
Jul 15
First Quarter
Jul 22
Full
Jul 29
Last Quarter

Hourly Weather History & Observations

Time (CDT) Temp. Heat Index Dew Point Humidity Pressure Visibility Wind Dir Wind Speed Gust Speed Precip Events Conditions
12:56 AM 77.0 °F - 57.9 °F 52% 29.78 in 10.0 mi South 13.8 mph - N/A   Clear
1:56 AM 75.9 °F - 57.0 °F 52% 29.79 in 10.0 mi South 12.7 mph 18.4 mph N/A   Clear
2:56 AM 75.0 °F - 55.9 °F 51% 29.78 in 10.0 mi SSE 9.2 mph - N/A   Clear
3:56 AM 75.0 °F - 55.9 °F 51% 29.77 in 10.0 mi South 15.0 mph 23.0 mph N/A   Clear
4:56 AM 75.0 °F - 55.9 °F 51% 29.76 in 10.0 mi South 13.8 mph 24.2 mph N/A   Clear
5:56 AM 73.9 °F - 57.0 °F 55% 29.77 in 10.0 mi South 12.7 mph - N/A   Clear
6:56 AM 73.0 °F - 57.9 °F 59% 29.77 in 10.0 mi SSE 13.8 mph - N/A   Clear
7:56 AM 73.9 °F - 60.1 °F 62% 29.77 in 10.0 mi SSE 15.0 mph 20.7 mph N/A   Clear
8:56 AM 75.9 °F - 61.0 °F 60% 29.76 in 10.0 mi SSE 19.6 mph 25.3 mph N/A   Clear
9:56 AM 77.0 °F - 62.1 °F 60% 29.77 in 10.0 mi South 15.0 mph 23.0 mph N/A   Clear
10:56 AM 82.0 °F 83.1 °F 63.0 °F 52% 29.77 in 10.0 mi South 17.3 mph 21.9 mph N/A   Clear
11:56 AM 84.9 °F 85.9 °F 63.0 °F 48% 29.75 in 10.0 mi South 16.1 mph 24.2 mph N/A   Clear
12:56 PM 87.1 °F 88.3 °F 64.0 °F 46% 29.75 in 10.0 mi South 16.1 mph 23.0 mph N/A   Clear
1:56 PM 89.1 °F 91.0 °F 64.9 °F 45% 29.75 in 10.0 mi South 16.1 mph 25.3 mph N/A   Clear
2:56 PM 89.1 °F 91.0 °F 64.9 °F 45% 29.74 in 10.0 mi South 17.3 mph 25.3 mph N/A   Clear
3:56 PM 90.0 °F 92.4 °F 66.0 °F 45% 29.73 in 10.0 mi SSE 16.1 mph 25.3 mph N/A   Clear
4:56 PM 89.1 °F 92.1 °F 66.9 °F 48% 29.73 in 10.0 mi SSE 15.0 mph 24.2 mph N/A   Clear
5:56 PM 88.0 °F 90.3 °F 66.0 °F 48% 29.73 in 10.0 mi SSE 16.1 mph - N/A   Clear
6:56 PM 86.0 °F 87.6 °F 64.9 °F 49% 29.73 in 10.0 mi SSE 13.8 mph 21.9 mph N/A   Clear
7:56 PM 84.0 °F 86.5 °F 66.9 °F 56% 29.73 in 10.0 mi SE 11.5 mph 19.6 mph N/A   Clear
8:56 PM 82.0 °F 84.1 °F 66.0 °F 58% 29.75 in 10.0 mi SE 11.5 mph 19.6 mph N/A   Clear
9:56 PM 78.1 °F - 66.0 °F 66% 29.78 in 10.0 mi SE 9.2 mph - N/A   Clear
10:56 PM 77.0 °F - 64.0 °F 64% 29.79 in 10.0 mi SSE 11.5 mph 21.9 mph N/A   Clear
11:56 PM 75.0 °F - 64.0 °F 69% 29.80 in 10.0 mi SSE 13.8 mph - N/A   Clear